STARLINK-1227 (45230 NORAD) Tracking and Keplerian Element Data

This shows tracking and keplerian element data for the satellite.

Feedback or suggestion? Click here.




ElementValue
Catalog45230
NameSTARLINK-1227
Epoch Orbit162
Epoch Day93.91667824
Epoch Year2020
RAAN44.4522
Inclination52.9998
Eccentricity0.0008194
Argument of Perigee323.8214
Mean Anonmoly106.1093
Mean Motion15.62748379
Decay Rate6.962E-05
L11 45230U 20012BE 20093.91667824 .00006962 00000-0 81785-4 0 9992
L22 45230 52.9998 44.4522 0008194 323.8214 106.1093 15.62748379 1625

Live tracking and technical data element details for STARLINK-1227 (NORAD 45230). STARLINK-1227 can be tracked NOW for your location showing map with azimuth and elevation plus other details from your city location.

Track the satellite on the map from your city or location and see movement details for azimuth, elevation, latitude, longitude, range, height, and movement on the map or in text.







IsCatalogInMostPopularTable: catalog: 45230, numindb: 8
Update: records affected: 1



GetName: 45230 STARLINK-1227

Hit Count: updated at: Tue, 07 Apr 2020 17:09:37 GMT